Location: Four Corners
(38.2757°N, 122.4608°W)
Time: 04:31:19
(UTC+00:00)

Meteor 1-5 Rocket - Pass Details

Date: 08 December 2019
Orbit: 788 x 916 km, 81.2° (Epoch: 22 January)

Event Time Altitude Azimuth Distance (km) Brightness Sun altitude
Rises 01:49:46 0° 349° (N) 3,413 7.3 -11.6°
Reaches altitude 10° 01:52:14 10° 349° (NNW) 2,455 6.5 -12.1°
Maximum altitude 01:57:46 80° 263° (W) 833 4.3 -13.1°
Drops below altitude 10° 02:03:06 10° 177° (S) 2,367 6.7 -14.1°
Sets 02:05:26 0° 176° (S) 3,283 7.5 -14.6°
